sat.trackr.live / text

‹ back to catalog

SENTINEL-2A

NORAD 40697 · 2015-028A

PAYLOAD ACTIVE UNKNOWN

§ Identity

Operator
Country
ESA
Launch date
2015-06-23
Launch site
FRGUI
Launch vehicle
Mass (kg)
RCS (m²)
3.45

Purposes: earth_obs

External: N2YO · Heavens-Above · Gunter

§ Orbital elements

Epoch: 2026-09-09T04:48:59.357664Z

Period
100.64 min
Inclination
98.5631°
Eccentricity
0.0001193
Mean motion
14.30818971 rev/d
Perigee alt
788.1 km
Apogee alt
789.8 km
Semi-major
7,167.1 km
B*
-4.6480e-5
RAAN
325.8328°
Arg perigee
84.0733°
Mean anomaly
276.0586°
Rev number
58,574

§ Raw data

SENTINEL-2A1 40697U 15028A   26252.20068701 -.00000165  00000+0 -46480-4 0  99922 40697  98.5631 325.8328 0001193  84.0733 276.0586 14.30818971585745

JSON: /api/v1/satellites/40697 · /tle

For live sub-satellite position, see the globe view (requires WebGL).

§ Visibility from observer

Set your observer location to see the next 7 days of passes ≥ 10°. The values pass through the URL so the page stays shareable.

No JS? Fill the form by hand. The geolocation button needs JavaScript.